Powrót do katalogu

STARLINK-33841

AktywnyŁącznośćVLEO
NORAD 63771·PAYLOAD·🇺🇸 United States

Wystrzelony Apr 29, 2025 z Cape Canaveral Space Force Station

Loading…

Następne Przeloty (najbliższe 24 godziny)

TLE

ŚwieżeSource: CelesTrak SupGP

Epoka: Sep 15, 2026, 02:23 UTC

1 63771C 25089W   26258.09979167 -.00021450  00000+0 -77687-3 0  2588
2 63771  43.0025  55.4112 0001444 269.6309 207.9808 15.27591390    13

Śledź STARLINK-33841 w czasie rzeczywistym z AllMySat

Download on the App Store